Vorticity
8 2 -9 1 -46 75 0 3 1 4 4 3 6 14 10 9 5 2 6 8 13 21
10 2 -4 5 -6 -58 -5 6 3 -0 6 7 5 -6 23 6 3 2 8 6 21 18
11 11 11 4 -27 42 15 -6 4 -1 4 -8 4 3 27 5 9 5 7 5 24 13
-27 42 -32 6 4 -19 -5 4 12 0 11 0 9 10 8 13 1 11 2 22 3 4
5 28 1 3 -1 3 3 8 13 -2 11 5 6 5 8 14 22 7 4 8 5 1
56 35 -1 10 4 13 10 4 18 2 19 17 -0 9 12 19 18 3 5 6 5 4
5 14 1 6 21 35 -6 26 -1 -3 -1 -2 24 3 14 20 13 6 6 7 7 7
4 -8 28 16 25 34 73 70 67 53 12 34 27 9 22 29 -1 5 7 8 6 5
58 34 -4 17 7 9 4 7 17 20 21 15 4 8 12 11 11 11 10 11 12 12
19 17 14 17 16 13 12 8 16 11 9 -14 2 10 9 10 5 10 9 11 11 1
4 5 6 10 11 13 15 19 20 19 18 19 19 13 9 8 11 6 7 10 11 10
8 9 9 10 10 11 12 13 14 16 20 21 18 18 18 16 15 6 10 -6 -5 24
6 6 7 7 7 7 8 6 5 4 5 5 13 18 23 25 26 20 13 15 6 -2
9 8 8 8 8 8 8 8 6 5 5 3 1 3 5 5 10 25 28 22 19 19
Height
5652 5663 5668 5669 5665 5675 5684 5695 5702 5707 5710 5712 5714 5715 5716 5718 5719 5720 5720 5720 5719 5720
5638 5649 5655 5663 5666 5675 5678 5687 5691 5695 5699 5701 5702 5704 5705 5707 5709 5710 5710 5711 5710 5711
5629 5640 5648 5654 5658 5667 5669 5676 5681 5685 5688 5689 5691 5691 5694 5697 5698 5698 5701 5701 5700 5701
5625 5632 5637 5634 5646 5650 5659 5664 5669 5673 5676 5676 5680 5680 5683 5688 5688 5688 5691 5691 5690 5692
5617 5624 5629 5631 5640 5644 5648 5654 5659 5660 5660 5663 5667 5670 5671 5676 5677 5677 5680 5680 5680 5682
5612 5621 5627 5631 5634 5636 5639 5641 5643 5645 5648 5651 5654 5657 5658 5662 5663 5664 5666 5667 5668 5669
5610 5617 5622 5623 5624 5627 5627 5628 5631 5632 5635 5637 5640 5643 5645 5647 5648 5649 5652 5654 5655 5656
5602 5607 5611 5613 5614 5616 5617 5615 5616 5619 5622 5624 5626 5628 5630 5631 5632 5636 5639 5641 5643 5643
5596 5599 5603 5599 5604 5607 5606 5607 5608 5610 5612 5613 5613 5614 5617 5617 5619 5623 5626 5628 5628 5629
5592 5594 5596 5597 5599 5599 5598 5599 5601 5602 5603 5603 5604 5604 5605 5606 5609 5610 5611 5613 5614 5615
5588 5589 5590 5591 5593 5593 5592 5591 5591 5592 5592 5592 5592 5592 5593 5594 5595 5596 5597 5598 5599 5600
5586 5588 5588 5588 5589 5588 5587 5585 5584 5583 5583 5583 5582 5580 5580 5580 5581 5582 5582 5584 5584 5583
5584 5583 5583 5584 5584 5583 5581 5580 5580 5578 5576 5574 5572 5570 5569 5567 5565 5566 5566 5568 5568 5568
5579 5578 5577 5577 5576 5574 5573 5572 5570 5569 5567 5565 5563 5560 5558 5555 5553 5551 5550 5550 5550 5551